N0ZMJ-3 Weather Reports


Display with metric or nautical units.
time (UTC)temp
F
wind
direction
speed
MPH
gust
MPH
rain 1hr
in
rain 24hr
in
rain mn
in
humidity
%
barometer
mb
20260905043500 73 101 0.0 1.0 0.00 0.00 0.00 98 1012.7
20260905043428 73 101 0.0 1.0 0.00 0.00 0.00 98 1012.7
20260905042806 73 101 0.0 2.0 0.00 0.00 0.00 97 1012.7
20260905042427 73 101 1.0 2.0 0.00 0.00 0.00 97 1012.7
20260905042103 73 101 1.0 2.0 0.00 0.00 0.00 97 1012.7
20260905041427 73 101 1.0 4.0 0.00 0.00 0.00 97 1012.7
20260905041359 73 101 1.0 4.0 0.00 0.00 0.00 97 1012.7
20260905040659 73 101 1.0 4.0 0.00 0.00 0.00 97 1012.7
20260905040429 73 101 3.0 5.0 0.00 0.00 0.00 96 1012.8
20260905040002 73 101 3.0 7.0 0.00 0.00 0.00 96 1012.8
20260905035429 74 101 3.0 7.0 0.00 0.00 0.00 96 1012.8
20260905035300 74 101 3.0 7.0 0.00 0.00 0.00 96 1012.8
20260905034429 74 97 3.0 6.0 0.00 0.00 0.00 96 1012.9
20260905033905 74 102 3.0 6.0 0.00 0.00 0.00 96 1013.0
20260905033428 74 102 2.0 7.0 0.00 0.00 0.00 96 1012.9
20260905033206 74 102 2.0 7.0 0.00 0.00 0.00 96 1012.9
20260905032506 74 101 3.0 6.0 0.00 0.00 0.00 95 1012.9
20260905032427 74 101 3.0 6.0 0.00 0.00 0.00 95 1012.9
20260905031759 74 87 2.0 5.0 0.00 0.00 0.00 95 1012.8
20260905031427 74 87 2.0 5.0 0.00 0.00 0.00 95 1012.8
20260905031101 74 87 2.0 5.0 0.00 0.00 0.00 95 1012.8
20260905030429 75 98 2.0 5.0 0.00 0.00 0.00 94 1012.7
20260905030400 75 98 2.0 5.0 0.00 0.00 0.00 94 1012.7
20260905025428 75 103 4.0 8.0 0.00 0.00 0.00 94 1012.5
20260905025000 75 96 4.0 8.0 0.00 0.00 0.00 93 1012.5
20260905024428 75 89 1.0 4.0 0.00 0.00 0.00 92 1012.6
20260905024303 75 89 1.0 4.0 0.00 0.00 0.00 92 1012.6
20260905023601 75 89 1.0 4.0 0.00 0.00 0.00 92 1012.5
20260905023428 76 74 2.0 5.0 0.00 0.00 0.00 92 1012.5
20260905022900 76 47 2.0 5.0 0.00 0.00 0.00 91 1012.4
20260905022428 76 81 2.0 5.0 0.00 0.00 0.00 90 1012.3
20260905022203 76 81 2.0 5.0 0.00 0.00 0.00 90 1012.3
20260905021506 76 44 1.0 5.0 0.00 0.00 0.00 89 1012.2
20260905021428 76 44 1.0 5.0 0.00 0.00 0.00 89 1012.2
20260905020803 77 134 2.0 5.0 0.00 0.00 0.00 88 1012.2
20260905020427 77 48 1.0 3.0 0.00 0.00 0.00 87 1012.1
20260905020059 77 48 1.0 3.0 0.00 0.00 0.00 87 1012.1
20260905015427 78 48 1.0 6.0 0.00 0.00 0.00 86 1012.0
20260905015402 78 48 1.0 6.0 0.00 0.00 0.00 86 1012.0
20260905014703 78 53 3.0 6.0 0.00 0.00 0.00 85 1011.8
20260905014427 79 69 2.0 6.0 0.00 0.00 0.00 84 1011.8
20260905013959 79 115 2.0 7.0 0.00 0.00 0.00 83 1011.8
20260905013429 79 115 3.0 8.0 0.00 0.00 0.00 83 1011.7
20260905013301 79 115 3.0 8.0 0.00 0.00 0.00 83 1011.7
20260905012606 80 100 3.0 8.0 0.00 0.00 0.00 82 1011.6
20260905012429 80 113 3.0 7.0 0.00 0.00 0.00 81 1011.6
20260905011900 80 106 2.0 9.0 0.00 0.00 0.00 81 1011.6
20260905011428 81 94 3.0 9.0 0.00 0.00 0.00 80 1011.6
20260905011203 81 94 3.0 9.0 0.00 0.00 0.00 80 1011.6
20260905010459 81 90 5.0 9.0 0.00 0.00 0.00 79 1011.4
20260905010428 81 90 5.0 9.0 0.00 0.00 0.00 79 1011.4
20260905005759 82 95 6.0 9.0 0.00 0.00 0.00 78 1011.5
20260905005428 82 98 6.0 9.0 0.00 0.00 0.00 77 1011.4
20260905005109 82 98 6.0 9.0 0.00 0.00 0.00 77 1011.4
20260905004428 83 92 5.0 8.0 0.00 0.00 0.00 76 1011.4
20260905004402 83 92 5.0 8.0 0.00 0.00 0.00 76 1011.4
20260905003702 83 90 5.0 10.0 0.00 0.00 0.00 75 1011.5
20260905003428 83 100 4.0 10.0 0.00 0.00 0.00 74 1011.5
20260905002959 83 91 5.0 8.0 0.00 0.00 0.00 73 1011.3
20260905002428 84 94 5.0 9.0 0.00 0.00 0.00 72 1011.3
20260905002301 84 94 5.0 9.0 0.00 0.00 0.00 72 1011.3
20260905001603 84 89 5.0 9.0 0.00 0.00 0.00 71 1011.3
20260905001427 84 100 5.0 8.0 0.00 0.00 0.00 70 1011.2
20260905000858 85 100 4.0 9.0 0.00 0.00 0.00 69 1011.2
20260905000428 85 95 5.0 10.0 0.00 0.00 0.00 68 1011.1
20260905000204 85 95 5.0 10.0 0.00 0.00 0.00 68 1011.1
20260904235501 85 92 5.0 9.0 0.00 0.00 0.00 67 1011.2
20260904235429 85 92 5.0 9.0 0.00 0.00 0.00 67 1011.2
20260904234801 86 98 6.0 10.0 0.00 0.00 0.00 65 1011.2
20260904234429 86 92 6.0 10.0 0.00 0.00 0.00 64 1011.3
20260904234104 86 92 6.0 10.0 0.00 0.00 0.00 64 1011.3
20260904233429 86 104 6.0 10.0 0.00 0.00 0.00 64 1011.4
20260904233400 86 104 6.0 10.0 0.00 0.00 0.00 64 1011.4
20260904232701 86 85 6.0 11.0 0.00 0.00 0.00 63 1011.3
20260904232428 86 92 6.0 12.0 0.00 0.00 0.00 64 1011.3
20260904232000 87 105 7.0 12.0 0.00 0.00 0.00 63 1011.2
20260904231428 87 100 6.0 11.0 0.00 0.00 0.00 62 1011.1
20260904231300 87 100 6.0 11.0 0.00 0.00 0.00 62 1011.1
20260904230607 87 88 5.0 12.0 0.00 0.00 0.00 61 1011.2
20260904230428 87 97 7.0 12.0 0.00 0.00 0.00 60 1011.0
20260904225859 87 100 6.0 11.0 0.00 0.00 0.00 61 1011.1
20260904225428 88 95 6.0 9.0 0.00 0.00 0.00 61 1011.2
20260904224500 88 81 5.0 13.0 0.00 0.00 0.00 59 1011.2
20260904224428 88 81 5.0 13.0 0.00 0.00 0.00 59 1011.2
20260904223800 88 94 7.0 13.0 0.00 0.00 0.00 59 1011.1
20260904223429 88 95 8.0 12.0 0.00 0.00 0.00 58 1011.2
20260904223101 88 95 8.0 12.0 0.00 0.00 0.00 58 1011.2
20260904222429 88 98 8.0 11.0 0.00 0.00 0.00 57 1011.3
20260904222403 88 98 8.0 11.0 0.00 0.00 0.00 57 1011.3
20260904221700 89 99 7.0 12.0 0.00 0.00 0.00 56 1011.4
20260904221428 89 96 8.0 12.0 0.00 0.00 0.00 56 1011.4
20260904221001 89 79 4.0 12.0 0.00 0.00 0.00 56 1011.5
20260904220428 89 87 5.0 10.0 0.00 0.00 0.00 56 1011.4
20260904220304 89 87 5.0 10.0 0.00 0.00 0.00 56 1011.4
20260904215602 89 96 6.0 10.0 0.00 0.00 0.00 55 1011.4
20260904215428 89 94 5.0 10.0 0.00 0.00 0.00 55 1011.4
20260904214900 89 95 6.0 11.0 0.00 0.00 0.00 55 1011.5
20260904214428 89 94 7.0 11.0 0.00 0.00 0.00 56 1011.5
20260904214159 89 94 7.0 11.0 0.00 0.00 0.00 56 1011.5
20260904213501 89 88 5.0 10.0 0.00 0.00 0.00 55 1011.6
20260904213428 89 88 5.0 10.0 0.00 0.00 0.00 55 1011.6
20260904212759 89 100 7.0 10.0 0.00 0.00 0.00 53 1011.5
20260904212427 90 97 6.0 9.0 0.00 0.00 0.00 53 1011.4
20260904212059 90 97 6.0 9.0 0.00 0.00 0.00 53 1011.4
20260904211427 90 97 6.0 10.0 0.00 0.00 0.00 52 1011.4
20260904211403 90 97 6.0 10.0 0.00 0.00 0.00 52 1011.4
20260904210659 90 83 5.0 9.0 0.00 0.00 0.00 52 1011.6
20260904210427 90 95 5.0 10.0 0.00 0.00 0.00 51 1011.5
20260904205959 90 76 5.0 10.0 0.00 0.00 0.00 51 1011.5
20260904205429 90 68 4.0 8.0 0.00 0.00 0.00 51 1011.6
20260904205306 90 68 4.0 8.0 0.00 0.00 0.00 51 1011.6
20260904204602 90 92 4.0 8.0 0.00 0.00 0.00 50 1011.6
20260904204429 90 104 5.0 9.0 0.00 0.00 0.00 50 1011.5
20260904203903 90 96 4.0 10.0 0.00 0.00 0.00 50 1011.6
20260904203428 90 102 6.0 10.0 0.00 0.00 0.00 50 1011.5
20260904203201 90 102 6.0 10.0 0.00 0.00 0.00 50 1011.5
20260904202501 90 103 5.0 11.0 0.00 0.00 0.00 46 1011.5
20260904202428 90 103 5.0 11.0 0.00 0.00 0.00 46 1011.5
20260904201800 90 97 6.0 11.0 0.00 0.00 0.00 48 1011.5
20260904201428 90 99 6.0 11.0 0.00 0.00 0.00 48 1011.4
20260904201107 90 99 6.0 11.0 0.00 0.00 0.00 48 1011.4
20260904200428 90 101 8.0 11.0 0.00 0.00 0.00 46 1011.5
20260904200401 90 101 8.0 11.0 0.00 0.00 0.00 46 1011.5
20260904195701 90 88 5.0 9.0 0.00 0.00 0.00 48 1011.5
20260904195428 90 104 5.0 9.0 0.00 0.00 0.00 48 1011.5
20260904195001 90 93 4.0 9.0 0.00 0.00 0.00 50 1011.5
20260904194429 90 88 4.0 10.0 0.00 0.00 0.00 49 1011.5
20260904194301 90 88 4.0 10.0 0.00 0.00 0.00 49 1011.5
20260904193605 90 80 5.0 10.0 0.00 0.00 0.00 50 1011.6
20260904193429 90 87 6.0 10.0 0.00 0.00 0.00 50 1011.7
20260904192429 90 93 5.0 10.0 0.00 0.00 0.00 48 1011.6
20260904192201 90 93 5.0 10.0 0.00 0.00 0.00 48 1011.6
20260904191502 90 99 6.0 10.0 0.00 0.00 0.00 48 1011.8
20260904191428 90 99 6.0 10.0 0.00 0.00 0.00 48 1011.8
20260904190801 90 95 5.0 10.0 0.00 0.00 0.00 47 1011.8
20260904190428 90 95 5.0 10.0 0.00 0.00 0.00 48 1011.9
20260904190059 90 95 5.0 10.0 0.00 0.00 0.00 48 1011.9
20260904185428 90 104 5.0 9.0 0.00 0.00 0.00 47 1011.9
20260904185401 90 104 5.0 9.0 0.00 0.00 0.00 47 1011.9
20260904184702 90 97 6.0 11.0 0.00 0.00 0.00 47 1011.8
20260904184428 90 104 7.0 11.0 0.00 0.00 0.00 46 1011.9
20260904183959 90 100 7.0 11.0 0.00 0.00 0.00 46 1011.7
20260904183427 90 88 5.0 11.0 0.00 0.00 0.00 48 1011.9
20260904183300 90 88 5.0 11.0 0.00 0.00 0.00 48 1011.9
20260904182601 90 94 6.0 10.0 0.00 0.00 0.00 48 1011.9
20260904182427 90 99 7.0 10.0 0.00 0.00 0.00 48 1011.8
20260904181902 90 81 5.0 11.0 0.00 0.00 0.00 49 1012.0
20260904181427 90 88 5.0 12.0 0.00 0.00 0.00 48 1011.9
20260904181200 90 88 5.0 12.0 0.00 0.00 0.00 48 1011.9
20260904180503 90 89 7.0 11.0 0.00 0.00 0.00 48 1011.7
20260904180429 90 89 7.0 11.0 0.00 0.00 0.00 48 1011.7
20260904175802 90 99 6.0 11.0 0.00 0.00 0.00 47 1011.8
20260904175429 90 94 6.0 10.0 0.00 0.00 0.00 48 1011.8
20260904175102 90 94 6.0 10.0 0.00 0.00 0.00 48 1011.8
20260904174429 90 82 6.0 10.0 0.00 0.00 0.00 50 1011.7
20260904174400 90 82 6.0 10.0 0.00 0.00 0.00 50 1011.7
20260904173700 89 97 6.0 10.0 0.00 0.00 0.00 50 1011.7
20260904173428 89 96 5.0 11.0 0.00 0.00 0.00 52 1011.7
20260904173003 89 94 6.0 11.0 0.00 0.00 0.00 54 1011.7
20260904172428 89 76 6.0 11.0 0.00 0.00 0.00 55 1011.6
20260904172305 89 76 6.0 11.0 0.00 0.00 0.00 55 1011.6
20260904171600 89 93 4.0 11.0 0.00 0.00 0.00 57 1011.5
20260904171428 88 82 4.0 9.0 0.00 0.00 0.00 58 1011.5
20260904170900 88 100 4.0 11.0 0.00 0.00 0.00 59 1011.5
20260904170428 88 91 5.0 11.0 0.00 0.00 0.00 60 1011.5
20260904170200 88 91 5.0 11.0 0.00 0.00 0.00 60 1011.5
20260904165459 87 84 4.0 9.0 0.00 0.00 0.00 59 1011.3
20260904165428 87 84 4.0 9.0 0.00 0.00 0.00 59 1011.3
20260904164427 86 97 7.0 10.0 0.00 0.00 0.00 63 1011.3
20260904164105 86 97 7.0 10.0 0.00 0.00 0.00 63 1011.3
20260904163428 85 57 3.0 6.0 0.00 0.00 0.00 66 1011.4
20260904163400 85 57 3.0 6.0 0.00 0.00 0.00 66 1011.4
20260904162700 85 72 3.0 6.0 0.00 0.00 0.00 67 1011.3
20260904162428 84 76 4.0 6.0 0.00 0.00 0.00 68 1011.3
20260904162007 84 82 3.0 6.0 0.00 0.00 0.00 73 1011.3
20260904161428 83 56 3.0 7.0 0.00 0.00 0.00 79 1011.3
20260904161301 83 56 3.0 7.0 0.00 0.00 0.00 79 1011.3
20260904160428 82 71 3.0 7.0 0.00 0.00 0.00 82 1011.3
20260904155902 82 59 3.0 6.0 0.00 0.00 0.00 83 1011.3
20260904155427 81 67 1.0 5.0 0.00 0.00 0.00 84 1011.3
20260904155201 81 67 1.0 5.0 0.00 0.00 0.00 84 1011.3
20260904154500 80 85 3.0 5.0 0.00 0.00 0.00 86 1011.2
20260904154427 80 85 3.0 5.0 0.00 0.00 0.00 86 1011.2
20260904153801 80 63 2.0 4.0 0.00 0.00 0.00 88 1011.3
20260904153427 79 55 1.0 4.0 0.00 0.00 0.00 89 1011.3
20260904153101 79 55 1.0 4.0 0.00 0.00 0.00 89 1011.3
20260904152429 78 57 0.0 3.0 0.00 0.00 0.00 90 1011.2
20260904152403 78 57 0.0 3.0 0.00 0.00 0.00 90 1011.2
20260904151428 78 57 3.0 5.0 0.00 0.00 0.00 90 1011.1
20260904150428 77 112 2.0 4.0 0.00 0.00 0.00 93 1011.1
20260904150311 77 112 2.0 4.0 0.00 0.00 0.00 93 1011.1
20260904145602 76 112 2.0 3.0 0.00 0.00 0.00 93 1011.1
20260904145428 76 112 0.0 3.0 0.00 0.00 0.00 95 1011.1
20260904144902 76 112 0.0 3.0 0.00 0.00 0.00 95 1011.1
20260904144428 75 112 0.0 2.0 0.00 0.00 0.00 95 1010.9
20260904144201 75 112 0.0 2.0 0.00 0.00 0.00 95 1010.9
20260904143503 75 112 0.0 3.0 0.00 0.00 0.00 97 1010.9
20260904143428 75 112 0.0 3.0 0.00 0.00 0.00 97 1010.9
20260904142800 75 112 1.0 3.0 0.00 0.00 0.00 97 1010.8
20260904142427 74 112 0.0 3.0 0.00 0.00 0.00 98 1010.7
20260904142059 74 112 0.0 3.0 0.00 0.00 0.00 98 1010.7
20260904141427 73 112 0.0 1.0 0.00 0.00 0.00 100 1010.9
20260904141401 73 112 0.0 1.0 0.00 0.00 0.00 100 1010.9
20260904140700 73 112 0.0 1.0 0.00 0.00 0.00 100 1010.9
20260904140429 72 112 0.0 0.0 0.00 0.00 0.00 100 1010.9
20260904140005 72 112 0.0 1.0 0.00 0.00 0.00 100 1010.9
20260904135429 72 112 0.0 1.0 0.00 0.00 0.00 100 1010.9
20260904135306 72 112 0.0 1.0 0.00 0.00 0.00 100 1010.9
20260904134428 71 112 0.0 1.0 0.00 0.00 0.00 100 1010.7
20260904133900 71 112 0.0 0.0 0.00 0.00 0.00 100 1010.7
20260904133428 71 112 0.0 0.0 0.00 0.00 0.00 100 1010.8
20260904133200 71 112 0.0 0.0 0.00 0.00 0.00 100 1010.8
20260904132428 70 112 0.0 1.0 0.00 0.00 0.00 100 1010.7
20260904131800 70 112 0.0 1.0 0.00 0.00 0.00 100 1010.6
20260904131428 69 112 0.0 1.0 0.00 0.00 0.00 100 1010.6
20260904131101 69 112 0.0 1.0 0.00 0.00 0.00 100 1010.6
20260904130428 68 112 0.0 1.0 0.00 0.00 0.00 100 1010.5
20260904130403 68 112 0.0 1.0 0.00 0.00 0.00 100 1010.5
20260904125659 68 112 0.0 0.0 0.00 0.00 0.00 100 1010.4
20260904125428 67 112 0.0 0.0 0.00 0.00 0.00 100 1010.5
20260904125001 67 112 0.0 0.0 0.00 0.00 0.00 100 1010.3
20260904124427 66 112 0.0 0.0 0.00 0.00 0.00 100 1010.3
20260904124301 66 112 0.0 0.0 0.00 0.00 0.00 100 1010.3
20260904123559 66 112 0.0 0.0 0.00 0.00 0.00 100 1010.3
20260904123428 66 112 0.0 0.0 0.00 0.00 0.00 100 1010.2
20260904122900 66 112 0.0 0.0 0.00 0.00 0.00 100 1010.2
20260904122428 66 112 0.0 0.0 0.00 0.00 0.00 100 1010.1
20260904122159 66 112 0.0 0.0 0.00 0.00 0.00 100 1010.1
20260904121504 66 112 0.0 0.0 0.00 0.00 0.00 100 1010.1
20260904121428 66 112 0.0 0.0 0.00 0.00 0.00 100 1010.1
20260904120800 66 112 0.0 0.0 0.00 0.00 0.00 100 1010.1
20260904120428 66 112 0.0 0.0 0.00 0.00 0.00 100 1010.1
20260904120059 66 112 0.0 0.0 0.00 0.00 0.00 100 1010.1
20260904115427 66 112 0.0 0.0 0.00 0.00 0.00 100 1009.9
20260904115359 66 112 0.0 0.0 0.00 0.00 0.00 100 1009.9
20260904114428 67 112 0.0 1.0 0.00 0.00 0.00 100 1009.8
20260904114003 67 112 0.0 1.0 0.00 0.00 0.00 100 1009.9
20260904113428 67 112 0.0 1.0 0.00 0.00 0.00 100 1009.9
20260904113300 67 112 0.0 1.0 0.00 0.00 0.00 100 1009.9
20260904112600 67 112 0.0 1.0 0.00 0.00 0.00 100 1009.7
20260904112428 67 112 0.0 1.0 0.00 0.00 0.00 100 1009.6
20260904111859 67 112 0.0 1.0 0.00 0.00 0.00 100 1009.5
20260904111427 66 112 0.0 2.0 0.00 0.00 0.00 100 1009.5
20260904111200 66 112 0.0 2.0 0.00 0.00 0.00 100 1009.5
20260904110507 66 112 1.0 2.0 0.00 0.00 0.00 100 1009.5
20260904110427 66 112 1.0 2.0 0.00 0.00 0.00 100 1009.5
20260904105802 66 150 0.0 2.0 0.00 0.00 0.00 100 1009.5
20260904105429 66 150 0.0 2.0 0.00 0.00 0.00 100 1009.4
20260904105100 66 150 0.0 2.0 0.00 0.00 0.00 100 1009.4
20260904104429 67 150 0.0 2.0 0.00 0.00 0.00 100 1009.3
20260904104400 67 150 0.0 2.0 0.00 0.00 0.00 100 1009.3
20260904103659 67 150 0.0 2.0 0.00 0.00 0.00 100 1009.3
20260904103428 67 150 0.0 2.0 0.00 0.00 0.00 100 1009.4
20260904102428 67 150 0.0 1.0 0.00 0.00 0.00 100 1009.3
20260904102300 67 150 0.0 1.0 0.00 0.00 0.00 100 1009.3
20260904101427 67 150 0.0 0.0 0.00 0.00 0.00 100 1009.2
20260904100901 67 150 0.0 0.0 0.00 0.00 0.00 100 1009.1
20260904100427 67 150 0.0 0.0 0.00 0.00 0.00 100 1009.2
20260904100200 67 150 0.0 0.0 0.00 0.00 0.00 100 1009.2
20260904095427 67 150 0.0 1.0 0.00 0.00 0.00 100 1009.2
20260904094800 67 150 0.0 1.0 0.00 0.00 0.00 100 1009.1
20260904094429 67 150 0.0 0.0 0.00 0.00 0.00 100 1009.1
20260904094101 67 150 0.0 0.0 0.00 0.00 0.00 100 1009.1
20260904093429 68 150 0.0 0.0 0.00 0.00 0.00 100 1008.9
20260904093402 68 150 0.0 0.0 0.00 0.00 0.00 100 1008.9
20260904092700 68 150 0.0 1.0 0.00 0.00 0.00 100 1008.9
20260904092429 68 150 0.0 1.0 0.00 0.00 0.00 100 1008.9
20260904092003 68 150 0.0 1.0 0.00 0.00 0.00 100 1008.9
20260904091428 68 150 0.0 0.0 0.00 0.00 0.00 100 1008.8
20260904091301 68 150 0.0 0.0 0.00 0.00 0.00 100 1008.8
20260904090600 68 150 0.0 0.0 0.00 0.00 0.00 100 1008.7
20260904090428 68 150 0.0 0.0 0.00 0.00 0.00 100 1008.6
20260904085900 68 150 0.0 0.0 0.00 0.00 0.00 100 1008.5
20260904085428 68 150 0.0 0.0 0.00 0.00 0.00 100 1008.5
20260904085200 68 150 0.0 0.0 0.00 0.00 0.00 100 1008.5
20260904084502 68 150 0.0 0.0 0.00 0.00 0.00 100 1008.5
20260904084428 68 150 0.0 0.0 0.00 0.00 0.00 100 1008.5
20260904083800 69 150 0.0 0.0 0.00 0.00 0.00 100 1008.6
20260904083428 69 150 0.0 1.0 0.00 0.00 0.00 100 1008.6
20260904083100 69 150 0.0 1.0 0.00 0.00 0.00 100 1008.6
20260904082428 69 150 0.0 0.0 0.00 0.00 0.00 100 1008.6
20260904082400 69 150 0.0 0.0 0.00 0.00 0.00 100 1008.6
20260904081659 69 150 0.0 0.0 0.00 0.00 0.00 100 1008.5
20260904081427 69 150 0.0 2.0 0.00 0.00 0.00 100 1008.6
20260904080959 69 150 0.0 2.0 0.00 0.00 0.00 100 1008.5
20260904080427 69 150 0.0 1.0 0.00 0.00 0.00 100 1008.6
20260904080302 69 150 0.0 1.0 0.00 0.00 0.00 100 1008.6
20260904075603 69 150 0.0 2.0 0.00 0.00 0.00 100 1008.5
20260904075428 69 150 0.0 2.0 0.00 0.00 0.00 100 1008.4
20260904074901 69 150 0.0 2.0 0.00 0.00 0.00 100 1008.4
20260904074428 69 150 0.0 0.0 0.00 0.00 0.00 100 1008.4
20260904074202 69 150 0.0 0.0 0.00 0.00 0.00 100 1008.4
20260904073504 70 150 0.0 2.0 0.00 0.00 0.00 100 1008.5
20260904073428 70 150 0.0 2.0 0.00 0.00 0.00 100 1008.5
20260904072801 70 150 0.0 2.0 0.00 0.00 0.00 100 1008.6
20260904072428 70 150 0.0 2.0 0.00 0.00 0.00 100 1008.5
20260904072059 70 150 0.0 2.0 0.00 0.00 0.00 100 1008.5
20260904071428 70 150 0.0 3.0 0.00 0.00 0.00 100 1008.4
20260904071359 70 150 0.0 3.0 0.00 0.00 0.00 100 1008.4
20260904070659 70 148 0.0 2.0 0.00 0.00 0.00 100 1008.5
20260904070427 70 148 0.0 2.0 0.00 0.00 0.00 100 1008.6
20260904070004 70 148 0.0 2.0 0.00 0.00 0.00 100 1008.5
20260904065427 71 148 0.0 2.0 0.00 0.00 0.00 100 1008.5
20260904065259 71 148 0.0 2.0 0.00 0.00 0.00 100 1008.5
20260904064559 71 148 0.0 2.0 0.00 0.00 0.00 100 1008.5
20260904064427 71 148 0.0 2.0 0.00 0.00 0.00 100 1008.6
20260904063900 71 148 0.0 1.0 0.00 0.00 0.00 100 1008.5
20260904063429 71 148 0.0 0.0 0.00 0.00 0.00 100 1008.7
20260904063204 71 148 0.0 0.0 0.00 0.00 0.00 100 1008.7
20260904062507 71 148 0.0 0.0 0.00 0.00 0.00 100 1008.7
20260904062429 71 148 0.0 0.0 0.00 0.00 0.00 100 1008.7
20260904061803 71 148 0.0 0.0 0.00 0.00 0.00 100 1008.6
20260904061429 71 148 0.0 0.0 0.00 0.00 0.00 100 1008.6
20260904061101 71 148 0.0 0.0 0.00 0.00 0.00 100 1008.6
20260904060428 72 148 0.0 0.0 0.00 0.00 0.00 100 1008.6
20260904060400 72 148 0.0 0.0 0.00 0.00 0.00 100 1008.6
20260904055704 72 148 0.0 0.0 0.00 0.00 0.00 100 1008.7
20260904055428 72 148 0.0 0.0 0.00 0.00 0.00 100 1008.6
20260904055000 72 148 0.0 0.0 0.00 0.00 0.00 100 1008.5
20260904054428 72 148 0.0 0.0 0.00 0.00 0.00 99 1008.5
20260904054303 72 148 0.0 0.0 0.00 0.00 0.00 99 1008.5
20260904053605 72 148 0.0 0.0 0.00 0.00 0.00 99 1008.4
20260904053427 72 148 0.0 0.0 0.00 0.00 0.00 99 1008.5
20260904052900 72 148 0.0 0.0 0.00 0.00 0.00 99 1008.5
20260904052427 72 148 0.0 0.0 0.00 0.00 0.00 99 1008.5
20260904052203 72 148 0.0 0.0 0.00 0.00 0.00 99 1008.5
20260904051503 73 148 0.0 0.0 0.00 0.00 0.00 98 1008.4
20260904051429 73 148 0.0 0.0 0.00 0.00 0.00 98 1008.4
20260904050800 73 148 0.0 0.0 0.00 0.00 0.00 98 1008.4
20260904050429 73 148 0.0 0.0 0.00 0.00 0.00 98 1008.3
20260904045428 74 148 0.0 0.0 0.00 0.00 0.00 96 1008.2
20260904045400 74 148 0.0 0.0 0.00 0.00 0.00 96 1008.2
20260904044701 74 148 0.0 0.0 0.00 0.00 0.00 96 1008.0
20260904044427 74 148 0.0 0.0 0.00 0.00 0.00 96 1008.0